User: anonymous   Login
Location: Unspecified
(0.0000°N, 0.0000°E)
Time: 12:41:10
(UTC+00:00)
Language:

CAPE 1 - Orbit

View from above orbital plane
View from above orbital plane
View from above satellite
View from above satellite

Ground track
Ground track

The orbit data is extracted from the following two-line orbital elements,

1 31130U 07012P   23342.79934178  .00001469  00000-0  30391-3 0  9999
2 31130  98.3287 287.0662 0093286  61.3861 299.6684 14.59157709883686
Epoch (UTC): 08 December 2023 19:11:03
Eccentricity: 0.0093286
inclination: 98.3287°
perigee height: 630 km
apogee height: 762 km
right ascension of ascending node: 287.0662°
argument of perigee: 61.3861°
revolutions per day: 14.59157709
mean anomaly at epoch: 299.6684°
orbit number at epoch: 88368

The dashed part of the orbit path shows where the satellite is in the earth's shadow,  

DLR